Regional Weather Roundup
Issued by NWS State College, PA

Home | Current Version | Previous Version | Text Only | Print | Product List | Glossary Off
Versions: 1 2 3 4 5 6 7 8 9 10 11 12 13 14 15 16 17 18 19 20 21 22 23 24 25 26 27 28 29 30 31 32 33 34 35 36 37 38 39 40 41 42 43 44 45 46 47 48 49 50

000
ASUS41 KCTP 271810
RWRCTP

REGIONAL WEATHER ROUNDUP
NATIONAL WEATHER SERVICE STATE COLLEGE PA
200 PM EDT TUE SEP 27 2016

Note: "fair" indicates few or no clouds below 12,000 feet with no
significant weather and/or obstructions to visibility.

* = STATION THAT DOES NOT REPORT PRECIPITATION /E.G. RAIN...SNOW...ETC/
    THUNDER OR FOG.

PAZ002>004-007>009-013>016-020>023-029>032-271900-
WESTERN PENNSYLVANIA

CITY           SKY/WX    TMP DP  RH WIND       PRES   REMARKS
ERIE           SUNNY     72  41  32 SW16G26   29.81F
MEADVILLE      MOSUNNY   67  38  34 S16G26    29.85F
FRANKLIN*        N/A     66  39  37 SW16G23   29.89F
NEW CASTLE     FAIR      70  41  34 VRB7G16   29.88F
BEAVER COUNTY  SUNNY     72  41  33 SW10G21   29.89F
BUTLER*        SUNNY     70  37  30 SW8G22    29.92F
PITTSBURGH INT MOSUNNY   70  36  28 W13G30    29.90F
PITTSBURGH     SUNNY     70  36  28 SW18      29.91F
INDIANA*       SUNNY     68  43  40 SW17G23   29.94F
LATROBE        MOSUNNY   68  45  42 SW12G23   29.94F
WASHINGTON CO* SUNNY     70  41  35 SW9G16    29.92F
$$

PAZ004>006-010>012-017>019-024>028-033>037-041-042-045-046-049>053-271900-
CENTRAL PENNSYLVANIA

CITY           SKY/WX    TMP DP  RH WIND       PRES   REMARKS
BRADFORD       SUNNY     64  37  36 VRB7G18   29.89F
DUBOIS         SUNNY     66  37  34 SW18G26   29.90F
CLEARFIELD     SUNNY     69  39  33 SW15G24   29.91F
JOHNSTOWN      SUNNY     64  40  41 W10       29.94F
ALTOONA        SUNNY     69  43  38 W6G20     29.93F
STATE COLLEGE  MOSUNNY   70  45  40 SW10      29.91F
WILLIAMSPORT   MOSUNNY   71  52  50 E5        29.88F
SELINSGROVE    MOSUNNY   72  49  44 S6        29.91F
FT INDIANTOWN  MOSUNNY   72  47  42 S9        29.91F
CAPITAL CITY   SUNNY     74  44  34 NW7       29.91F
HARRISBURG     MOSUNNY   73  47  39 CALM      29.91F
YORK           SUNNY     72  44  36 VRB7      29.92F
$$

PAZ038>040-043-044-047-048-054-055-060>062-067>071-271900-
EASTERN PENNSYLVANIA

CITY           SKY/WX    TMP DP  RH WIND       PRES   REMARKS
SCRANTON       SUNNY     70  46  42 VRB7      29.91F
MOUNT POCONO   SUNNY     65  47  52 VRB3      29.93F
ALLENTOWN      MOSUNNY   73  49  42 W6        29.92F
QUAKERTOWN*    PTCLDY    72  46  40 S6        29.93F
READING        MOSUNNY   72  48  42 NW7       29.92F
LANCASTER      SUNNY     74  48  39 CALM      29.92F
COATESVILLE    CLEAR     72  46  40 W7        29.95F
POTTSTOWN      MOSUNNY   72  48  42 VRB6      29.94F
BLUE BELL      MOSUNNY   70  52  52 W5        29.92F
DOYLESTOWN     MOSUNNY   74  55  51 VRB5      29.92F
WILLOW GROVE   NOT AVBL
NORTH PHILA    CLOUDY    74  53  48 VRB6      29.93F
PHILADELPHIA   PTSUNNY   71  55  56 W7        29.93F
$$



USA.gov is the U.S. government's official web portal to all federal, state and local government web resources and services.